Vyhledávání knížek ve školní knihovně SVZS Kladno

Zadejte hledané slovo (autor, dílo, část názvu a pod.)

Vypsány výsledky od: 8651 až 8700. Celkem nalezeno 9372 výsledků.

č. Poř.č. Signatura Spisovatel Název knihy Počet svazků Nakladatel Rok vyd. Cena Jazyk Číslo dokl. Aktualizováno
8652 17321 15.37 Mertin, Gillernová Psychologie pro učitelky mateřské školy 1 Portál (Praha) 2010 285.00 cze 08.06.2010
8653 17322 618.1 Uzel, Kovář Antikoncepční otazníky 1 CAT Publiching, Kovář Petr (Ostrava) 2010 214.00 cze 19.10.2010
8654 17323 616.98 Beneš Jiří a kol. Beneš Jiří a kol. 1 Beneš Jiří a kol. () 2009 1500.00 cze 21.09.2012
8655 17324 616.03 Dítě Petr Vnitřní lékařství 1 Galén (Praha) 2007 1200.00 cze 19.10.2010
8656 17325 612.3 Kadlec, Melzoch Co byste měli vědět o výrobě potravin 1 Key Publishing s.r.o. (Ostrava) 2009 650.00 cze 19.10.2010
8657 17326 15.37 Fontana David Psychologie ve školní praxi 1 Portál (Praha) 2010 397.00 cze 19.10.2010
8658 17327 611 Dylevský Ivan Základy anatomie 1 Triton (Praha) 2006 399.00 cze 19.10.2010
8659 17328 612.3 Schleif Thilo Histaminová intolerance 1 Galén (Praha) 2009 200.00 cze 19.10.2010
8660 17329 15.37 Goetz, Uhlíková ADHD, porucha pozornosti... 1 Galén (Praha) 2009 190.00 cze 19.10.2010
8661 17330 54 Pumpr, Adamec Chemie - základy přírodovědného vzdělává 1 Fortuna (Praha) 2008 50.00 cze 04.01.2011
8662 17331 802.0 Oxenden, Latham- Koenig New English File - Teacher´s Book + CD 1 Oxford University Press () 2007 0.00 eng 04.01.2011
8663 17332 802.0 Oxenden, ..... New English File -Workbook +CD 1 Oxford University Press () 2005 0.00 eng ? 04.01.2011
8664 17333 802.0 Oxenden, ..... New English File - Student´s Book 1 Oxford University Press () 2008 0.00 eng 04.01.2011
8665 17334 802.0 Oxenden, .... New English File - Elementary Teacher´s 1 Oxford University Press () 2007 0.00 eng 04.01.2011
8666 17336 802.0 Oxenden, .... New English File, Elementary Student´s 1 Oxford University Press () 2007 0.00 eng 05.01.2011
8667 17338 802.0 Oxenden, ... New English File, Elementary Workbook + 1 Oxford University Press () 2004 0.00 eng 10.01.2011
8668 17339 943.7 Svitáková Jindra Osudové roky české státnosti 1 Asociace nositelů legionářských tradic, (Praha) 2010 104.00 cze 253/2010 10.01.2011
8669 17340 943.7 Svitáková Jitka Osudové roky české státnosti 1 Asociace nositelů legionářských tradic (Praha) 2010 104.00 cze 10.01.2011
8670 17431 34 /31 Hajzlerová Irena Spisová služba ve školské praxi 1 Pavera Antonín - Paris (Karviná) 2010 300.00 cze 10.01.2011
8671 17342 616.08 Tóthová Valerie Zabezpečení efekt. péče o vietnam. a čín 1 Triton (Praha) 2010 299.00 cze 10.01.2011
8672 17343 616.006/ 616.08 Anne-Mei Theová Paliativní péče a komunikace 1 Společnost pro odbornou literaturu (Brno) 2007 295.00 cze 10.01.2011
8673 17344 616.006/616.08 Payneová, Seymourová, Ingletonová Principy a praxe paliativní péče 1 Společnost pro odbornou literaturu (Brno) 2007 695.00 cze 447/2010 10.01.2011
8674 17345 616.08 Špatenková, Králová Základní otázky komunikace 1 Galén (Praha) 2009 190.00 cze 10.01.2011
8675 17346 616.03 Češka Richard a kol. INTERNA 1 Triton (Praha) 2010 1499.00 cze 10.01.2011
8676 17347 15 Goetz, Uhlíková ADHD porucha pozornosti s hyperaktivitou 1 Galén (Praha) 2009 190.00 cze 10.01.2011
8677 17348 616.89 Platznerová A. Sebepoškozování.... 1 Galén (Praha) 2009 250.00 cze 10.01.2011
8678 17349 376 Kutálková D. Průvodce vývojem dětské řeči 1 Galén (Praha) 2009 220.00 cze 10.01.2011
8679 17350 15 Drtílková, Šerý Hyperkinetická porucha ADHD 1 galén (Praha) 2007 390.00 cze 10.01.2011
8680 17351 17/ 616.08 Haškovcová Informovaný souhlas, proč a jak 1 Galén (Praha) 2007 190.00 cze 10.01.2011
8681 17352 616.08 Assdullah Zharfbin Lékařem v Saudské Arabii 1 Galén (Praha) 2008 150.00 cze 10.01.2011
8682 17353 616.053.9 Haškovcová Helena Fenomén stáří 1 Havlíček BRAIN TEAM (Praha) 2010 420.00 cze 10.01.2011
8683 17354 57 Kočárek Ed. Biologie člověka 1 1 Scientia (Praha) 2010 397.00 cze 10.01.2011
8684 17355 57 Závodská Radka Biologie buněk 1 Scientia (Praha) 2006 315.00 cze 10.01.2011
8685 17356 57 Kočárek Ed. Genetika 1 Scientia (Praha) 2008 368.00 cze 10.01.2011
8686 17357 57 Kočárek Ed. Genetika 1 Scientia (Praha) 2008 368.00 cze 10.01.2011
8687 17358 57 Kočárek Ed. Genetika 1 Scientia (Praha) 2008 368.00 cze 10.01.2011
8688 17359 57 Kočárek Ed. Genetika 1 Scientia (Praha) 2008 368.00 cze 10.01.2011
8689 17360 54 Fikr Jaroslav Jak porozumíme chem. vzorcům a rovnicím 1 Barrister a Principal, Martínkova 5, Brn (Brno) 2010 181.00 cze 18.01.2011
8690 17361 54 Fikr Jaroslav Jak porozumíme chem. výpočtům - díl 2 1 Barrister a Principal (Brno) 2010 163.00 cze 18.01.2011
8691 17362 808.2 Autorský kolektiv Lingea Velký slovník R-Č, Č-R 1 Lingea s.r.o (Brno) 2009 1082.00 rus 18.01.2011
8692 17363 808.2 Autorský kolektiv Lingea Šikovný slovník R-Č, Č-R 1 Lingea s.r.o (Brno) 2009 208.00 rus 317/2010 18.01.2011
8693 17364 808.2 Autorský kolektiv Šikovný slovník R-Č, Č-R 1 Lingea s.r.o (Brno) 2009 208.00 rus 18.01.2011
8694 17365 808.2 Autorský kolektiv Šikovný slovník R-Č, Č-R 1 Lingea s.r.o. (Brno) 2009 208.00 rus 19.01.2011
8695 17366 808.2 Autorský kolektiv Šikovný slovník R-Č, Č-R 1 Lingea s.r.o. (Brno) 2009 208.00 rus 19.01.2011
8696 17367 808.2 Autorský kolektiv Šikovný slovník R-Č, Č-R 1 Lingea s.r.o. (Brno) 2009 208.00 rus 19.01.2011
8697 17368 808.2 Autorský kolektiv Šikovný slovník R-Č, Č-R 1 Lingea s.r.o. (Brno) 2009 208.00 rus 19.01.2011
8698 17369 808.2 Autorský kolektiv Šikovný slovník R-Č, Č-R 1 Lingea s.r.o. (Brno) 2009 208.00 rus 19.01.2011
8699 17370 808.2 Autorský kolektiv Šikovný slovník R-Č, Č-R 1 Lingea s.r.o. (Brno) 2009 208.00 rus 19.01.2011
8700 17371 808.2 Autorský kolektiv Šikovný slovník R-Č, Č-R 1 Lingea s.r.o. (Brno) 2009 208.00 rus 19.01.2011
8701 17372 808.2 Autorský kolektiv Šikovný slovník R-Č, Č-R 1 Lingea s.r.o. (Brno) 2009 208.00 rus 19.01.2011
123456789101112131415161718192021222324252627282930313233343536373839404142434445464748495051525354555657585960616263646566676869707172737475767778798081828384858687888990919293949596979899100101102103104105106107108109110111112113114115116117118119120121122123124125126127128129130131132133134135136137138139140141142143144145146147148149150151152153154155156157158159160161162163164165166167168169170171172173174175176177178179180181182183184185186187188Všechny